FENGYUN 2H

Last updated on Wed Sep 09 2026 00:02:41 GMT+0000 (Coordinated Universal Time)

1 43491U 18050A 26251.46076656 -.00000149 00000+0 00000+0 0 9994 2 43491 3.2385 78.0214 0002873 151.0214 3.6652 1.00272160 30273
UTC large
Height (km)
Speed (km/s)
/
Latitude / Longitude
Inclination (degrees)
Orbital Period (minutes)
Azimuth
Elevation
Range (km)
Doppler Factor

Next 0 passes for location: London (51.5072 / 0.1276)

No passes found over London.
FENGYUN 2H